TimeEET,TemperatureF,Dew PointF,Humidity,Sea Level PressureIn,VisibilityMPH,Wind Direction,Wind SpeedMPH,Gust SpeedMPH,PrecipitationIn,Events,Conditions,WindDirDegrees,DateUTC
12:00 AM,66.2,48.2,52,29.98,-9999.0,North,6.9,-,N/A,,Clear,360,2012-12-05 22:00:00
1:00 AM,66.2,48.2,52,30.01,-9999.0,North,10.4,-,N/A,,Clear,10,2012-12-05 23:00:00
2:00 AM,65,49,45,29.99,6,North,10.4,,,,Partly Cloudy,10,2012-12-06 00:00:00
2:00 AM,64.4,48.2,56,29.98,-9999.0,North,10.4,-,N/A,,Clear,10,2012-12-06 00:00:00
3:00 AM,62.6,48.2,59,29.98,-9999.0,North,9.2,-,N/A,,Clear,360,2012-12-06 01:00:00
4:00 AM,60.8,48.2,63,29.98,-9999.0,North,8.1,-,N/A,,Clear,360,2012-12-06 02:00:00
5:00 AM,60.8,48.2,63,30.01,-9999.0,North,8.1,-,N/A,,Clear,360,2012-12-06 03:00:00
6:00 AM,59.0,48.2,67,30.01,-9999.0,North,11.5,-,N/A,,Clear,10,2012-12-06 04:00:00
7:00 AM,59.0,50.0,72,30.04,-9999.0,North,12.7,-,N/A,,Clear,360,2012-12-06 05:00:00
8:00 AM,61,49,56,30.05,6,North,9.2,,,,,0,2012-12-06 06:00:00
8:00 AM,60.8,50.0,68,30.04,-9999.0,North,9.2,-,N/A,,Clear,360,2012-12-06 06:00:00
9:00 AM,64.4,50.0,59,30.06,-9999.0,North,10.4,-,N/A,,Clear,360,2012-12-06 07:00:00
10:00 AM,68.0,50.0,52,30.06,-9999.0,North,10.4,-,N/A,,Clear,10,2012-12-06 08:00:00
11:00 AM,71.6,51.8,50,30.04,-9999.0,North,10.4,-,N/A,,Clear,10,2012-12-06 09:00:00
12:00 PM,75.2,51.8,44,30.01,-9999.0,NNE,8.1,-,N/A,,Clear,20,2012-12-06 10:00:00
1:00 PM,77.0,50.0,39,29.98,-9999.0,North,8.1,-,N/A,,Clear,360,2012-12-06 11:00:00
2:00 PM,80,51,25,29.95,6,North,8.1,,,,,10,2012-12-06 12:00:00
2:00 PM,78.8,50.0,36,29.98,-9999.0,North,8.1,-,N/A,,Clear,10,2012-12-06 12:00:00
3:00 PM,80.6,51.8,37,29.95,-9999.0,North,8.1,-,N/A,,Clear,360,2012-12-06 13:00:00
4:00 PM,80.6,51.8,37,29.95,-9999.0,North,8.1,-,N/A,,Clear,350,2012-12-06 14:00:00
5:00 PM,77.0,50.0,39,29.95,-9999.0,North,8.1,-,N/A,,Clear,350,2012-12-06 15:00:00
6:00 PM,75.2,50.0,41,29.98,-9999.0,North,6.9,-,N/A,,Clear,350,2012-12-06 16:00:00
7:00 PM,73.4,48.2,41,29.98,-9999.0,North,6.9,-,N/A,,Clear,350,2012-12-06 17:00:00
8:00 PM,72,46,29,29.99,6,North,9.2,,,,,0,2012-12-06 18:00:00
8:00 PM,71.6,46.4,41,30.01,-9999.0,North,9.2,-,N/A,,Clear,360,2012-12-06 18:00:00
9:00 PM,69.8,46.4,43,30.01,-9999.0,North,11.5,-,N/A,,Clear,10,2012-12-06 19:00:00
10:00 PM,68.0,48.2,49,30.01,-9999.0,North,10.4,-,N/A,,Clear,360,2012-12-06 20:00:00
11:00 PM,66.2,48.2,52,29.98,-9999.0,NNE,8.1,-,N/A,,Clear,20,2012-12-06 21:00:00